QPF
0.01 0.00 0.01 0.00 0.00 0.00 0.00 0.01 0.01 0.00 0.00 0.00 0.00 0.00 0.00 0.01 0.01 0.01 0.01 0.00 0.00 0.00 0.00 0.00 0.00 0.00 0.00 0.00 0.00 0.00 0.00 0.00 0.01 0.01 0.01 0.01 0.01 0.01 0.01 0.01 0.01 0.01 0.01 0.01
0.01 0.00 0.01 0.01 0.00 0.00 0.00 0.00 0.00 0.00 0.00 0.00 0.00 0.00 0.00 0.00 0.01 0.01 0.01 0.01 0.01 0.01 0.01 0.00 0.00 0.00 0.00 0.00 0.00 0.00 0.00 0.00 0.00 0.00 0.00 0.01 0.01 0.01 0.01 0.01 0.01 0.01 0.01 0.01
0.01 0.00 0.01 0.01 0.00 0.00 0.00 0.00 0.01 0.00 0.00 0.00 0.00 0.00 0.00 0.01 0.01 0.01 0.01 0.01 0.01 0.01 0.00 0.00 0.00 0.00 0.00 0.00 0.00 0.00 0.00 0.00 0.00 0.00 0.00 0.00 0.01 0.01 0.01 0.01 0.01 0.01 0.01 0.01
0.01 0.01 0.01 0.00 0.00 0.00 0.00 0.00 0.00 0.01 0.01 0.01 0.01 0.01 0.01 0.01 0.01 0.01 0.01 0.01 0.01 0.01 0.00 0.00 0.00 0.00 0.00 0.00 0.00 0.00 0.00 0.00 0.00 0.00 0.00 0.00 0.01 0.01 0.01 0.01 0.01 0.01 0.01 0.01
0.02 0.01 0.00 0.00 0.00 0.00 0.00 0.00 0.00 0.01 0.01 0.01 0.01 0.01 0.01 0.01 0.01 0.01 0.01 0.00 0.00 0.00 0.00 0.00 0.00 0.00 0.00 0.00 0.00 0.00 0.00 0.00 0.00 0.00 0.00 0.00 0.01 0.01 0.01 0.01 0.01 0.02 0.01 0.01
0.02 0.01 0.00 0.00 0.00 0.00 0.00 0.00 0.00 0.00 0.00 0.00 0.01 0.01 0.01 0.01 0.00 0.00 0.00 0.00 0.00 0.00 0.00 0.00 0.00 0.00 0.00 0.00 0.00 0.00 0.00 0.00 0.00 0.00 0.00 0.00 0.00 0.00 0.01 0.01 0.01 0.01 0.01 0.01
0.02 0.02 0.01 0.00 0.00 0.00 0.01 0.01 0.00 0.00 0.00 0.00 0.00 0.01 0.01 0.00 0.00 0.00 0.00 0.00 0.00 0.00 0.00 0.00 0.00 0.00 0.00 0.00 0.00 0.00 0.00 0.00 0.00 0.00 0.00 0.00 0.01 0.00 0.01 0.01 0.01 0.01 0.01 0.01
0.01 0.02 0.01 0.01 0.01 0.01 0.01 0.01 0.00 0.00 0.00 0.00 0.01 0.00 0.00 0.00 0.00 0.00 0.00 0.00 0.00 0.00 0.00 0.00 0.00 0.00 0.00 0.00 0.00 0.00 0.00 0.00 0.00 0.00 0.00 0.00 0.01 0.01 0.01 0.01 0.01 0.01 0.01 0.01
0.01 0.01 0.01 0.01 0.01 0.01 0.01 0.01 0.01 0.01 0.00 0.00 0.01 0.00 0.00 0.01 0.01 0.00 0.00 0.00 0.00 0.00 0.00 0.00 0.00 0.00 0.00 0.00 0.00 0.00 0.01 0.01 0.00 0.00 0.00 0.00 0.01 0.01 0.01 0.01 0.01 0.01 0.01 0.01
0.01 0.01 0.01 0.01 0.01 0.01 0.01 0.01 0.01 0.00 0.00 0.00 0.01 0.01 0.00 0.01 0.01 0.00 0.00 0.00 0.00 0.00 0.00 0.00 0.00 0.00 0.01 0.01 0.00 0.01 0.01 0.01 0.01 0.01 0.01 0.01 0.01 0.01 0.01 0.01 0.01 0.01 0.01 0.01
0.01 0.01 0.01 0.01 0.01 0.00 0.00 0.00 0.00 0.00 0.01 0.01 0.01 0.01 0.01 0.01 0.01 0.00 0.00 0.00 0.00 0.00 0.00 0.00 0.00 0.01 0.01 0.01 0.01 0.01 0.01 0.01 0.01 0.01 0.01 0.01 0.01 0.01 0.01 0.02 0.02 0.03 0.02 0.02
0.01 0.00 0.00 0.00 0.01 0.01 0.00 0.00 0.01 0.01 0.01 0.01 0.01 0.01 0.01 0.01 0.00 0.00 0.00 0.00 0.00 0.00 0.00 0.00 0.00 0.01 0.01 0.01 0.01 0.01 0.01 0.01 0.01 0.01 0.01 0.01 0.01 0.01 0.01 0.01 0.01 0.02 0.02 0.02
0.01 0.01 0.01 0.01 0.01 0.01 0.01 0.01 0.01 0.01 0.01 0.01 0.01 0.01 0.01 0.01 0.00 0.00 0.00 0.00 0.00 0.00 0.00 0.00 0.01 0.01 0.01 0.01 0.01 0.01 0.01 0.01 0.01 0.01 0.01 0.01 0.01 0.02 0.01 0.01 0.01 0.01 0.02 0.02
0.00 0.00 0.00 0.01 0.01 0.01 0.01 0.01 0.00 0.01 0.01 0.01 0.01 0.01 0.01 0.01 0.01 0.00 0.00 0.00 0.00 0.00 0.00 0.00 0.00 0.01 0.01 0.01 0.01 0.01 0.01 0.01 0.01 0.02 0.02 0.02 0.02 0.02 0.02 0.02 0.01 0.01 0.02 0.02
0.00 0.00 0.00 0.00 0.01 0.00 0.00 0.00 0.00 0.00 0.00 0.00 0.01 0.01 0.01 0.01 0.01 0.00 0.00 0.01 0.00 0.00 0.00 0.00 0.00 0.01 0.01 0.01 0.01 0.01 0.01 0.02 0.02 0.02 0.02 0.02 0.02 0.02 0.02 0.02 0.02 0.02 0.02 0.02
0.00 0.00 0.00 0.00 0.00 0.00 0.00 0.00 0.00 0.00 0.00 0.00 0.00 0.00 0.00 0.00 0.00 0.00 0.01 0.01 0.01 0.00 0.00 0.00 0.01 0.01 0.01 0.01 0.01 0.02 0.02 0.02 0.02 0.02 0.02 0.02 0.02 0.02 0.02 0.02 0.02 0.02 0.02 0.02
0.01 0.01 0.01 0.01 0.00 0.00 0.00 0.00 0.00 0.00 0.00 0.00 0.00 0.00 0.00 0.00 0.00 0.00 0.01 0.01 0.01 0.01 0.01 0.01 0.01 0.01 0.01 0.01 0.01 0.01 0.02 0.02 0.02 0.02 0.01 0.01 0.02 0.02 0.02 0.03 0.03 0.02 0.02 0.03
0.01 0.01 0.01 0.01 0.00 0.00 0.00 0.00 0.00 0.00 0.00 0.00 0.00 0.00 0.00 0.00 0.00 0.00 0.01 0.01 0.01 0.01 0.01 0.01 0.01 0.01 0.01 0.01 0.01 0.01 0.01 0.01 0.01 0.01 0.01 0.01 0.01 0.02 0.02 0.02 0.03 0.03 0.02 0.02
0.00 0.00 0.00 0.00 0.00 0.00 0.00 0.00 0.00 0.00 0.00 0.00 0.00 0.00 0.00 0.00 0.00 0.01 0.01 0.01 0.01 0.01 0.01 0.01 0.01 0.01 0.01 0.01 0.01 0.01 0.01 0.01 0.01 0.01 0.01 0.01 0.01 0.01 0.01 0.02 0.02 0.02 0.02 0.02
0.00 0.00 0.00 0.00 0.00 0.00 0.00 0.00 0.00 0.00 0.00 0.00 0.00 0.00 0.00 0.00 0.00 0.01 0.01 0.01 0.01 0.01 0.01 0.01 0.01 0.01 0.01 0.01 0.01 0.01 0.01 0.01 0.01 0.01 0.01 0.01 0.01 0.01 0.01 0.01 0.01 0.02 0.02 0.02
0.00 0.00 0.00 0.00 0.00 0.00 0.00 0.00 0.00 0.00 0.00 0.00 0.00 0.00 0.00 0.00 0.01 0.01 0.01 0.01 0.01 0.01 0.01 0.01 0.01 0.01 0.01 0.01 0.01 0.01 0.01 0.01 0.01 0.01 0.01 0.01 0.01 0.01 0.01 0.01 0.01 0.01 0.01 0.02
0.00 0.00 0.00 0.00 0.00 0.00 0.00 0.00 0.00 0.00 0.00 0.00 0.00 0.00 0.00 0.00 0.00 0.01 0.01 0.01 0.01 0.02 0.01 0.01 0.01 0.01 0.01 0.02 0.01 0.01 0.01 0.01 0.01 0.01 0.01 0.01 0.01 0.01 0.01 0.01 0.01 0.01 0.01 0.01
0.00 0.00 0.00 0.00 0.00 0.00 0.00 0.00 0.00 0.00 0.00 0.00 0.01 0.01 0.01 0.01 0.01 0.01 0.01 0.01 0.01 0.02 0.01 0.01 0.01 0.01 0.01 0.01 0.01 0.01 0.01 0.01 0.01 0.01 0.01 0.01 0.01 0.01 0.01 0.01 0.01 0.01 0.01 0.01
0.00 0.00 0.00 0.00 0.00 0.00 0.00 0.00 0.00 0.01 0.01 0.01 0.01 0.01 0.01 0.01 0.01 0.01 0.01 0.01 0.01 0.01 0.01 0.01 0.01 0.01 0.01 0.01 0.01 0.01 0.01 0.01 0.01 0.01 0.01 0.01 0.01 0.01 0.01 0.01 0.01 0.01 0.01 0.01
0.00 0.00 0.00 0.00 0.00 0.00 0.00 0.01 0.01 0.01 0.01 0.01 0.01 0.01 0.01 0.01 0.01 0.01 0.01 0.01 0.01 0.01 0.01 0.00 0.01 0.01 0.01 0.01 0.01 0.01 0.01 0.01 0.01 0.01 0.01 0.01 0.01 0.01 0.01 0.01 0.01 0.01 0.01 0.01
0.00 0.00 0.00 0.00 0.01 0.01 0.01 0.01 0.01 0.01 0.01 0.01 0.01 0.01 0.01 0.01 0.01 0.01 0.01 0.01 0.00 0.00 0.00 0.00 0.00 0.00 0.00 0.00 0.00 0.00 0.00 0.01 0.01 0.01 0.01 0.01 0.01 0.01 0.01 0.01 0.01 0.01 0.01 0.01
0.00 0.00 0.00 0.01 0.01 0.01 0.01 0.01 0.01 0.01 0.01 0.01 0.01 0.01 0.01 0.01 0.01 0.01 0.00 0.00 0.00 0.00 0.00 0.00 0.00 0.00 0.00 0.00 0.00 0.00 0.00 0.00 0.00 0.00 0.00 0.00 0.01 0.01 0.01 0.01 0.01 0.01 0.01 0.01
MSLP
1025.27 1026.71 1027.93 1028.89 1029.59 1030.10 1030.47 1030.80 1031.17 1031.63 1032.19 1032.85 1033.53 1034.19 1034.74 1035.13 1035.33 1035.34 1035.18 1034.91 1034.56 1034.20 1033.85 1033.52 1033.20 1032.86 1032.47 1031.99 1031.40 1030.69 1029.88 1028.99 1028.05 1027.08 1026.10 1025.11 1024.11 1023.09 1022.05 1020.99 1019.92 1018.88 1017.90 1017.05
1026.27 1027.92 1029.40 1030.65 1031.65 1032.40 1032.96 1033.38 1033.72 1034.04 1034.36 1034.69 1035.02 1035.33 1035.57 1035.73 1035.79 1035.75 1035.63 1035.45 1035.23 1035.00 1034.76 1034.50 1034.21 1033.86 1033.42 1032.87 1032.23 1031.49 1030.67 1029.81 1028.92 1028.02 1027.13 1026.23 1025.30 1024.35 1023.34 1022.29 1021.21 1020.13 1019.10 1018.17
1026.92 1028.63 1030.22 1031.64 1032.83 1033.78 1034.52 1035.06 1035.45 1035.73 1035.93 1036.07 1036.18 1036.24 1036.27 1036.26 1036.22 1036.14 1036.05 1035.94 1035.82 1035.69 1035.53 1035.32 1035.05 1034.68 1034.21 1033.62 1032.95 1032.19 1031.38 1030.56 1029.74 1028.92 1028.12 1027.31 1026.47 1025.59 1024.64 1023.63 1022.57 1021.49 1020.44 1019.46
1027.52 1029.15 1030.71 1032.15 1033.43 1034.50 1035.37 1036.04 1036.51 1036.83 1037.01 1037.09 1037.08 1037.01 1036.91 1036.78 1036.66 1036.55 1036.46 1036.38 1036.31 1036.23 1036.12 1035.94 1035.67 1035.29 1034.79 1034.19 1033.50 1032.75 1031.98 1031.20 1030.44 1029.71 1029.00 1028.28 1027.53 1026.72 1025.84 1024.89 1023.87 1022.82 1021.79 1020.80
1028.43 1029.85 1031.25 1032.60 1033.84 1034.95 1035.89 1036.64 1037.22 1037.60 1037.82 1037.89 1037.84 1037.71 1037.52 1037.32 1037.13 1036.97 1036.85 1036.76 1036.70 1036.62 1036.51 1036.33 1036.05 1035.66 1035.16 1034.56 1033.87 1033.15 1032.41 1031.70 1031.01 1030.36 1029.72 1029.09 1028.41 1027.68 1026.87 1025.98 1025.02 1024.02 1023.02 1022.07
1029.86 1031.00 1032.16 1033.32 1034.44 1035.48 1036.42 1037.21 1037.83 1038.28 1038.54 1038.63 1038.57 1038.39 1038.15 1037.89 1037.62 1037.40 1037.21 1037.08 1036.97 1036.86 1036.73 1036.52 1036.23 1035.83 1035.33 1034.74 1034.08 1033.39 1032.71 1032.05 1031.43 1030.84 1030.27 1029.70 1029.09 1028.42 1027.67 1026.84 1025.94 1025.00 1024.06 1023.14
1031.88 1032.72 1033.60 1034.51 1035.43 1036.33 1037.19 1037.94 1038.56 1039.01 1039.29 1039.37 1039.30 1039.09 1038.79 1038.45 1038.11 1037.79 1037.53 1037.32 1037.14 1036.98 1036.79 1036.56 1036.25 1035.84 1035.35 1034.78 1034.16 1033.52 1032.89 1032.29 1031.72 1031.19 1030.67 1030.14 1029.57 1028.94 1028.23 1027.45 1026.61 1025.72 1024.83 1023.97
1034.35 1034.91 1035.50 1036.14 1036.83 1037.54 1038.25 1038.90 1039.45 1039.85 1040.09 1040.14 1040.01 1039.75 1039.38 1038.96 1038.53 1038.12 1037.77 1037.47 1037.22 1036.99 1036.76 1036.49 1036.16 1035.77 1035.29 1034.76 1034.19 1033.60 1033.02 1032.46 1031.94 1031.44 1030.95 1030.44 1029.89 1029.28 1028.60 1027.85 1027.04 1026.19 1025.35 1024.53
1036.99 1037.32 1037.65 1038.03 1038.48 1038.98 1039.50 1040.00 1040.42 1040.72 1040.87 1040.85 1040.65 1040.31 1039.87 1039.37 1038.85 1038.36 1037.92 1037.55 1037.23 1036.95 1036.68 1036.39 1036.05 1035.67 1035.22 1034.73 1034.20 1033.66 1033.12 1032.61 1032.11 1031.63 1031.15 1030.64 1030.10 1029.49 1028.81 1028.07 1027.28 1026.46 1025.65 1024.86
1039.45 1039.60 1039.73 1039.90 1040.13 1040.41 1040.74 1041.06 1041.33 1041.50 1041.53 1041.41 1041.13 1040.71 1040.19 1039.62 1039.05 1038.49 1038.00 1037.57 1037.21 1036.89 1036.59 1036.29 1035.96 1035.59 1035.18 1034.72 1034.23 1033.73 1033.23 1032.74 1032.26 1031.78 1031.30 1030.79 1030.23 1029.61 1028.93 1028.19 1027.41 1026.60 1025.80 1025.03
1041.41 1041.44 1041.43 1041.43 1041.49 1041.60 1041.74 1041.90 1042.01 1042.05 1041.96 1041.74 1041.38 1040.90 1040.33 1039.73 1039.11 1038.53 1038.01 1037.56 1037.18 1036.84 1036.53 1036.23 1035.91 1035.55 1035.15 1034.72 1034.26 1033.78 1033.30 1032.83 1032.36 1031.89 1031.40 1030.88 1030.30 1029.67 1028.98 1028.24 1027.45 1026.65 1025.85 1025.09
1042.68 1042.64 1042.54 1042.44 1042.37 1042.34 1042.36 1042.38 1042.37 1042.29 1042.11 1041.82 1041.40 1040.89 1040.31 1039.70 1039.08 1038.51 1037.99 1037.54 1037.15 1036.81 1036.50 1036.19 1035.86 1035.50 1035.11 1034.68 1034.23 1033.77 1033.30 1032.83 1032.36 1031.89 1031.40 1030.87 1030.29 1029.66 1028.96 1028.21 1027.43 1026.63 1025.84 1025.08
1043.28 1043.20 1043.05 1042.89 1042.75 1042.65 1042.57 1042.50 1042.41 1042.26 1042.02 1041.69 1041.26 1040.75 1040.18 1039.59 1039.01 1038.46 1037.96 1037.52 1037.14 1036.79 1036.45 1036.12 1035.77 1035.39 1034.97 1034.53 1034.07 1033.60 1033.13 1032.66 1032.20 1031.73 1031.24 1030.71 1030.14 1029.52 1028.83 1028.10 1027.33 1026.53 1025.75 1025.00
1043.37 1043.27 1043.10 1042.91 1042.74 1042.60 1042.48 1042.37 1042.23 1042.05 1041.80 1041.46 1041.04 1040.56 1040.03 1039.48 1038.94 1038.42 1037.94 1037.50 1037.10 1036.72 1036.35 1035.97 1035.57 1035.14 1034.68 1034.20 1033.71 1033.22 1032.74 1032.27 1031.81 1031.35 1030.88 1030.37 1029.82 1029.22 1028.56 1027.84 1027.09 1026.32 1025.55 1024.81
1043.19 1043.08 1042.90 1042.71 1042.54 1042.39 1042.26 1042.13 1041.98 1041.80 1041.55 1041.23 1040.85 1040.40 1039.91 1039.40 1038.89 1038.39 1037.91 1037.46 1037.01 1036.58 1036.14 1035.68 1035.20 1034.70 1034.17 1033.64 1033.11 1032.60 1032.11 1031.63 1031.18 1030.74 1030.28 1029.81 1029.29 1028.72 1028.09 1027.41 1026.69 1025.95 1025.20 1024.48
1043.01 1042.87 1042.69 1042.50 1042.33 1042.18 1042.06 1041.93 1041.79 1041.61 1041.38 1041.08 1040.72 1040.30 1039.84 1039.35 1038.85 1038.34 1037.84 1037.33 1036.82 1036.31 1035.77 1035.22 1034.64 1034.05 1033.45 1032.86 1032.29 1031.75 1031.24 1030.77 1030.34 1029.91 1029.49 1029.05 1028.56 1028.03 1027.44 1026.80 1026.11 1025.40 1024.68 1023.97
1042.97 1042.81 1042.61 1042.43 1042.25 1042.11 1041.98 1041.86 1041.71 1041.53 1041.30 1041.01 1040.65 1040.24 1039.79 1039.29 1038.77 1038.22 1037.66 1037.08 1036.49 1035.87 1035.24 1034.58 1033.90 1033.22 1032.55 1031.91 1031.30 1030.74 1030.23 1029.77 1029.35 1028.95 1028.56 1028.14 1027.70 1027.20 1026.64 1026.03 1025.37 1024.68 1023.98 1023.29
1043.12 1042.92 1042.71 1042.51 1042.34 1042.18 1042.04 1041.89 1041.72 1041.52 1041.27 1040.96 1040.59 1040.15 1039.67 1039.14 1038.57 1037.97 1037.34 1036.68 1035.99 1035.27 1034.54 1033.78 1033.03 1032.28 1031.55 1030.87 1030.24 1029.67 1029.17 1028.72 1028.32 1027.95 1027.58 1027.20 1026.77 1026.30 1025.77 1025.18 1024.54 1023.86 1023.17 1022.49
1043.38 1043.15 1042.91 1042.69 1042.48 1042.30 1042.12 1041.93 1041.72 1041.47 1041.17 1040.82 1040.40 1039.92 1039.39 1038.81 1038.18 1037.52 1036.82 1036.08 1035.31 1034.52 1033.71 1032.90 1032.09 1031.30 1030.55 1029.85 1029.22 1028.67 1028.18 1027.76 1027.38 1027.02 1026.67 1026.31 1025.90 1025.44 1024.91 1024.33 1023.70 1023.03 1022.34 1021.65
1043.57 1043.31 1043.05 1042.79 1042.55 1042.32 1042.09 1041.84 1041.57 1041.25 1040.89 1040.47 1040.00 1039.46 1038.88 1038.25 1037.57 1036.86 1036.10 1035.32 1034.51 1033.67 1032.83 1031.99 1031.16 1030.37 1029.63 1028.95 1028.34 1027.81 1027.35 1026.95 1026.59 1026.26 1025.92 1025.56 1025.16 1024.70 1024.18 1023.59 1022.96 1022.28 1021.58 1020.87
1043.55 1043.26 1042.97 1042.68 1042.40 1042.12 1041.82 1041.51 1041.16 1040.77 1040.34 1039.86 1039.32 1038.74 1038.11 1037.45 1036.74 1036.00 1035.23 1034.44 1033.62 1032.79 1031.95 1031.13 1030.32 1029.56 1028.86 1028.22 1027.65 1027.15 1026.73 1026.35 1026.01 1025.69 1025.36 1025.00 1024.60 1024.14 1023.61 1023.02 1022.38 1021.70 1020.98 1020.25
1043.21 1042.90 1042.59 1042.27 1041.94 1041.61 1041.25 1040.87 1040.45 1040.00 1039.50 1038.97 1038.39 1037.78 1037.13 1036.45 1035.75 1035.02 1034.27 1033.50 1032.72 1031.93 1031.14 1030.36 1029.62 1028.91 1028.26 1027.67 1027.15 1026.69 1026.30 1025.94 1025.62 1025.31 1024.98 1024.63 1024.23 1023.76 1023.24 1022.65 1022.01 1021.32 1020.59 1019.84
1042.55 1042.23 1041.90 1041.56 1041.20 1040.82 1040.41 1039.97 1039.50 1038.99 1038.45 1037.88 1037.28 1036.66 1036.02 1035.37 1034.69 1034.01 1033.31 1032.60 1031.88 1031.16 1030.44 1029.73 1029.05 1028.41 1027.82 1027.29 1026.81 1026.39 1026.02 1025.69 1025.38 1025.07 1024.75 1024.40 1024.00 1023.54 1023.03 1022.45 1021.81 1021.12 1020.39 1019.63
1041.67 1041.34 1041.00 1040.64 1040.26 1039.85 1039.40 1038.93 1038.42 1037.87 1037.31 1036.72 1036.12 1035.52 1034.91 1034.30 1033.68 1033.06 1032.43 1031.79 1031.15 1030.51 1029.87 1029.24 1028.63 1028.06 1027.52 1027.03 1026.59 1026.19 1025.84 1025.52 1025.21 1024.91 1024.59 1024.25 1023.86 1023.42 1022.91 1022.35 1021.73 1021.06 1020.33 1019.56
1040.70 1040.37 1040.03 1039.66 1039.27 1038.84 1038.37 1037.87 1037.34 1036.78 1036.21 1035.63 1035.05 1034.47 1033.90 1033.34 1032.79 1032.24 1031.69 1031.13 1030.57 1030.00 1029.44 1028.87 1028.33 1027.80 1027.30 1026.84 1026.42 1026.04 1025.70 1025.38 1025.07 1024.77 1024.45 1024.11 1023.73 1023.30 1022.82 1022.28 1021.68 1021.02 1020.31 1019.54
1039.78 1039.47 1039.13 1038.77 1038.38 1037.94 1037.46 1036.95 1036.41 1035.85 1035.28 1034.71 1034.15 1033.61 1033.09 1032.58 1032.09 1031.61 1031.12 1030.63 1030.14 1029.63 1029.12 1028.61 1028.10 1027.61 1027.14 1026.70 1026.28 1025.91 1025.55 1025.23 1024.91 1024.60 1024.28 1023.93 1023.55 1023.13 1022.66 1022.14 1021.55 1020.91 1020.21 1019.45
1039.03 1038.73 1038.41 1038.06 1037.67 1037.23 1036.75 1036.24 1035.69 1035.13 1034.57 1034.01 1033.48 1032.97 1032.49 1032.02 1031.58 1031.15 1030.71 1030.28 1029.83 1029.37 1028.90 1028.42 1027.94 1027.46 1027.00 1026.57 1026.15 1025.76 1025.40 1025.06 1024.72 1024.39 1024.05 1023.68 1023.29 1022.86 1022.38 1021.85 1021.27 1020.63 1019.93 1019.18
Thickness
5368 5370 5365 5364 5363 5351 5350 5355 5357 5365 5359 5371 5363 5355 5349 5344 5339 5336 5334 5333 5331 5328 5326 5325 5324 5323 5323 5323 5324 5324 5325 5326 5327 5329 5330 5332 5334 5336 5338 5341 5343 5345 5348 5350
5357 5359 5353 5353 5358 5352 5348 5345 5344 5349 5353 5355 5345 5338 5334 5330 5328 5326 5324 5322 5319 5317 5315 5313 5313 5312 5312 5311 5311 5311 5312 5313 5314 5315 5317 5318 5320 5322 5324 5326 5329 5331 5333 5336
5349 5342 5347 5351 5353 5347 5339 5335 5336 5345 5351 5336 5330 5329 5324 5320 5317 5316 5315 5311 5308 5305 5304 5302 5301 5300 5299 5299 5299 5299 5300 5300 5301 5302 5304 5305 5307 5308 5310 5312 5314 5317 5319 5321
5330 5330 5339 5359 5340 5339 5335 5330 5323 5325 5323 5319 5319 5314 5310 5308 5306 5304 5303 5300 5298 5295 5293 5291 5289 5288 5287 5287 5287 5287 5287 5288 5289 5289 5290 5292 5293 5295 5296 5298 5299 5302 5304 5307
5319 5315 5327 5339 5331 5320 5321 5323 5316 5312 5311 5306 5303 5302 5303 5301 5296 5294 5292 5290 5287 5285 5282 5280 5278 5277 5276 5275 5275 5275 5275 5276 5276 5277 5278 5279 5280 5282 5283 5285 5287 5288 5290 5293
5306 5311 5323 5338 5320 5310 5312 5315 5313 5304 5300 5294 5292 5297 5302 5292 5286 5283 5280 5278 5276 5273 5271 5269 5267 5265 5264 5263 5263 5263 5264 5264 5265 5265 5266 5267 5268 5269 5271 5272 5274 5276 5278 5279
5300 5300 5311 5312 5302 5303 5311 5318 5304 5295 5290 5284 5280 5284 5283 5278 5274 5271 5268 5266 5264 5261 5259 5257 5255 5254 5252 5252 5251 5252 5252 5252 5252 5253 5254 5255 5256 5257 5258 5259 5261 5262 5264 5267
5286 5291 5308 5299 5293 5297 5302 5294 5288 5283 5279 5273 5270 5269 5266 5264 5262 5259 5256 5253 5251 5249 5247 5245 5244 5242 5242 5241 5241 5241 5240 5240 5241 5241 5242 5243 5244 5244 5245 5246 5246 5248 5250 5253
5291 5304 5300 5288 5288 5286 5282 5278 5275 5271 5267 5262 5258 5256 5255 5252 5248 5245 5243 5240 5238 5236 5235 5233 5232 5230 5229 5230 5229 5229 5229 5229 5229 5230 5230 5231 5232 5232 5232 5232 5233 5234 5237 5239
5276 5285 5285 5279 5275 5272 5268 5265 5263 5258 5254 5250 5247 5245 5241 5239 5236 5233 5230 5228 5226 5224 5222 5222 5220 5219 5218 5218 5218 5217 5217 5217 5218 5218 5219 5219 5220 5220 5220 5220 5220 5221 5223 5226
5270 5277 5275 5274 5268 5263 5258 5253 5249 5246 5243 5240 5236 5233 5229 5226 5223 5220 5219 5216 5214 5212 5211 5210 5209 5208 5208 5207 5206 5206 5206 5206 5206 5207 5207 5207 5208 5208 5209 5209 5209 5210 5211 5213
5278 5275 5268 5267 5258 5252 5247 5243 5239 5235 5231 5228 5224 5221 5217 5214 5212 5209 5206 5204 5202 5201 5200 5199 5198 5197 5196 5196 5195 5195 5195 5195 5194 5194 5195 5195 5196 5196 5197 5198 5199 5200 5202 5203
5263 5256 5251 5248 5243 5239 5235 5231 5227 5223 5220 5216 5213 5209 5205 5203 5200 5197 5195 5192 5191 5190 5189 5188 5187 5186 5186 5185 5184 5184 5183 5183 5183 5183 5183 5183 5183 5184 5185 5187 5188 5189 5191 5193
5244 5240 5239 5235 5231 5226 5222 5218 5214 5210 5207 5204 5200 5197 5193 5190 5188 5185 5184 5182 5181 5179 5178 5177 5176 5176 5175 5175 5174 5173 5172 5173 5173 5172 5171 5171 5171 5171 5172 5173 5175 5176 5178 5180
5232 5229 5227 5222 5217 5213 5210 5206 5202 5199 5195 5192 5188 5184 5181 5178 5176 5174 5172 5171 5169 5168 5168 5167 5166 5166 5165 5164 5164 5163 5162 5162 5162 5161 5161 5160 5160 5159 5160 5161 5162 5163 5165 5168
5223 5218 5214 5211 5208 5203 5198 5195 5191 5188 5184 5180 5176 5173 5170 5167 5165 5163 5161 5159 5157 5157 5157 5157 5156 5156 5155 5154 5154 5153 5153 5154 5154 5153 5152 5151 5150 5149 5149 5149 5150 5151 5152 5154
5212 5209 5204 5200 5197 5192 5188 5184 5180 5177 5173 5169 5166 5162 5159 5156 5154 5152 5150 5148 5147 5147 5147 5146 5146 5147 5146 5145 5144 5144 5144 5143 5145 5144 5141 5140 5139 5139 5139 5138 5139 5139 5141 5143
5202 5198 5194 5189 5185 5181 5177 5173 5169 5166 5162 5159 5155 5151 5148 5145 5143 5142 5140 5138 5137 5137 5137 5137 5137 5137 5136 5136 5136 5136 5135 5134 5134 5133 5132 5131 5130 5130 5130 5129 5130 5130 5131 5133
5190 5186 5182 5179 5174 5170 5166 5162 5159 5155 5152 5148 5144 5140 5137 5135 5133 5132 5129 5127 5126 5127 5129 5128 5129 5128 5128 5127 5128 5127 5126 5125 5125 5124 5123 5124 5123 5122 5121 5121 5121 5122 5123 5125
5178 5175 5171 5167 5163 5158 5155 5152 5148 5144 5141 5137 5134 5131 5128 5126 5124 5122 5120 5119 5119 5119 5120 5120 5120 5119 5119 5118 5119 5118 5117 5116 5116 5115 5114 5113 5113 5113 5113 5113 5114 5115 5116 5117
5167 5163 5159 5155 5151 5148 5145 5141 5138 5135 5132 5128 5124 5122 5120 5118 5115 5113 5111 5112 5113 5112 5112 5113 5112 5111 5111 5111 5111 5109 5108 5108 5107 5106 5106 5105 5105 5105 5105 5106 5107 5108 5109 5110
5155 5152 5148 5145 5141 5137 5134 5131 5128 5125 5122 5119 5117 5114 5111 5110 5108 5106 5105 5103 5104 5105 5105 5104 5103 5104 5104 5104 5103 5101 5100 5099 5099 5098 5097 5097 5097 5097 5098 5098 5099 5100 5101 5102
5144 5141 5137 5134 5130 5127 5124 5122 5119 5116 5114 5111 5108 5106 5104 5102 5099 5098 5098 5098 5097 5098 5098 5097 5097 5098 5098 5096 5094 5093 5092 5091 5091 5091 5090 5090 5090 5090 5091 5091 5092 5093 5094 5095
5134 5130 5127 5123 5120 5117 5115 5113 5111 5108 5105 5103 5101 5099 5096 5094 5092 5091 5089 5090 5090 5090 5089 5089 5090 5091 5090 5087 5085 5084 5083 5083 5083 5083 5083 5083 5083 5084 5084 5085 5085 5087 5088 5089
5123 5119 5116 5113 5111 5109 5107 5105 5102 5099 5097 5095 5094 5091 5089 5086 5084 5083 5081 5080 5080 5081 5079 5079 5080 5081 5079 5078 5077 5076 5076 5075 5075 5076 5076 5076 5076 5077 5077 5078 5079 5080 5082 5083
5114 5111 5108 5105 5102 5100 5098 5096 5093 5091 5089 5087 5086 5083 5081 5079 5077 5075 5073 5072 5071 5071 5070 5069 5069 5070 5069 5069 5069 5068 5069 5068 5068 5069 5069 5069 5070 5071 5072 5073 5074 5075 5077 5079
5106 5102 5100 5097 5095 5092 5089 5087 5085 5083 5081 5079 5077 5076 5074 5072 5070 5067 5065 5064 5062 5062 5061 5061 5061 5061 5061 5061 5061 5061 5061 5062 5062 5063 5063 5064 5065 5065 5067 5068 5069 5071 5073 5075